Wind_Speed
10 9 8 6 5 5 6 7 6 7 7 7 8 8 8 9 11 12 14 13 11 7 5 6 6 5 6 5 5 7 6 5 8 9 7 8 7 8 9 8 8 7 3 1 2 4 4 4 5 3 3 5 6 7 6 6 7 10 12 13 13 15 16
10 9 8 6 6 6 7 7 5 6 7 7 8 8 9 11 12 12 13 15 13 9 7 9 11 10 10 11 8 7 6 6 9 8 6 6 6 8 9 8 8 8 6 4 4 3 1 4 5 5 5 5 6 5 6 5 5 6 8 10 13 15 15
12 10 8 7 7 6 6 7 5 6 7 7 8 9 9 10 11 11 11 12 12 10 9 10 11 10 10 11 10 10 9 9 8 6 5 6 6 6 7 7 6 5 5 5 5 5 3 2 3 4 6 7 7 8 7 6 6 7 7 7 9 11 12
13 12 10 8 8 7 6 6 5 5 5 6 7 8 8 9 9 10 11 10 10 10 10 9 9 9 10 10 9 9 9 9 9 8 7 7 7 5 7 8 7 6 6 5 3 2 1 0 1 2 3 6 8 8 9 10 10 10 11 12 12 11 12
14 14 11 9 8 7 6 6 5 3 2 4 6 6 7 8 8 8 9 9 9 9 9 9 8 8 9 9 9 9 9 9 8 8 7 7 8 7 7 8 7 5 6 5 4 2 2 2 2 2 2 5 6 6 7 10 9 7 8 11 12 13 14
15 14 11 9 9 7 6 7 6 3 2 1 2 4 5 5 6 7 7 8 7 7 8 8 7 8 9 8 8 9 9 9 8 8 8 7 6 7 7 7 6 4 4 4 4 3 3 0 1 1 2 3 5 6 5 7 8 7 6 7 8 8 9
17 15 12 10 9 8 7 7 7 5 4 3 1 1 2 3 4 5 5 6 6 6 6 6 6 8 7 4 6 8 8 8 8 8 8 8 7 6 6 6 5 4 4 4 6 5 2 1 1 2 3 3 4 3 3 5 7 9 10 10 9 10 9
18 17 13 11 11 9 8 8 8 8 7 6 5 3 0 1 1 2 3 3 3 3 4 4 4 5 5 3 5 6 6 7 7 7 8 8 8 7 6 6 5 6 5 4 4 3 0 2 2 3 4 4 3 3 3 2 1 3 7 8 9 12 13
18 18 15 13 12 11 11 10 9 10 9 8 8 6 2 1 2 2 1 1 1 1 2 2 2 2 2 2 4 5 5 6 6 7 8 8 8 8 7 6 5 6 6 4 5 4 3 3 3 3 5 6 7 7 5 2 1 1 3 4 4 7 10
16 17 16 13 12 12 13 11 10 10 10 10 11 10 6 4 4 4 3 3 2 2 2 1 2 2 2 3 3 3 3 4 5 5 6 7 7 7 7 7 7 8 7 6 6 6 6 5 4 4 4 5 7 8 8 6 4 3 1 1 1 1 1
15 15 14 13 12 12 13 13 12 11 11 12 13 12 10 8 7 6 6 6 4 5 4 4 5 4 3 4 3 3 3 4 4 3 4 5 6 6 6 6 7 8 7 7 7 8 7 7 7 6 4 2 3 5 7 9 9 6 5 6 6 6 5
16 14 13 13 12 12 12 13 13 12 12 13 13 14 14 11 10 9 8 8 8 7 7 7 7 6 5 5 5 5 4 4 4 4 4 3 2 3 4 4 6 7 7 7 8 8 8 7 9 8 5 3 2 3 5 8 11 10 9 9 9 10 10
15 14 14 13 13 13 12 12 12 11 12 13 13 15 16 15 14 13 12 12 11 11 10 9 9 9 8 8 7 7 7 5 4 5 6 4 3 3 3 3 4 5 6 7 7 8 9 9 10 10 9 8 7 7 7 8 12 14 13 13 13 13 13
14 15 15 14 13 14 13 12 12 12 12 13 14 15 16 17 17 16 15 14 14 14 13 12 12 11 10 10 9 8 9 8 5 6 8 7 6 6 4 3 4 4 5 6 6 7 7 7 9 9 9 9 8 7 7 8 12 16 16 15 16 17 17
15 15 15 15 14 14 14 14 14 14 14 15 16 16 17 18 18 18 17 17 15 15 15 14 14 13 12 11 11 10 10 11 8 6 9 10 8 8 5 2 3 6 6 6 6 6 5 6 7 6 5 8 8 8 9 10 12 16 18 17 17 18 17
15 15 16 17 16 15 16 16 16 16 16 18 18 18 18 19 20 20 19 19 17 16 15 14 14 14 13 12 12 12 12 13 11 8 11 12 9 9 9 6 5 8 9 8 8 8 8 9 9 8 8 9 10 10 11 12 13 15 18 20 19 19 19
16 17 20 21 18 17 18 18 18 18 19 20 20 20 19 20 22 22 21 21 19 17 16 15 14 15 14 12 12 13 13 15 13 10 12 13 9 9 12 11 8 8 9 9 10 10 9 9 10 11 12 12 11 11 11 12 14 15 18 21 21 21 20
17 19 22 23 20 20 22 23 22 22 23 24 25 25 23 23 24 25 24 23 21 19 18 17 15 16 16 13 11 12 13 14 13 10 13 14 10 11 14 13 9 9 9 10 11 10 10 10 12 13 14 14 13 12 12 13 15 16 18 21 22 22 22
13 16 19 20 20 21 24 25 23 22 23 26 29 31 29 27 27 27 25 24 23 21 20 18 17 17 17 16 14 13 14 14 13 11 12 13 11 14 16 14 12 12 12 12 12 12 13 13 14 15 16 16 15 15 16 16 17 18 18 20 22 23 23
6 9 13 16 18 19 22 22 20 19 22 25 29 31 29 27 27 26 26 25 24 23 22 21 20 19 18 18 17 16 15 16 15 13 12 13 13 15 16 15 14 13 13 13 14 14 15 15 16 17 17 17 17 17 18 19 19 19 19 20 21 21 22
3 5 8 11 13 15 17 18 18 19 21 24 27 28 27 26 26 26 26 26 26 26 26 25 24 21 19 19 20 20 20 20 18 15 15 15 15 15 16 15 14 14 14 15 15 15 16 17 18 19 18 18 18 19 20 20 20 20 20 20 20 20 20
3 4 5 6 9 11 12 13 14 15 17 20 24 26 25 24 25 25 25 26 28 29 28 28 26 23 22 21 20 22 23 23 22 19 17 16 16 16 17 17 16 16 16 17 16 16 18 19 20 21 20 20 21 22 22 22 22 22 21 21 22 21 21
4 4 5 5 7 9 10 11 12 12 13 16 19 23 23 22 22 24 25 26 27 27 28 28 26 25 25 25 24 24 23 23 23 22 19 17 16 17 18 18 16 17 18 19 19 20 20 21 22 23 23 23 23 23 23 23 23 23 23 24 24 23 23
4 5 6 6 8 9 9 11 13 13 14 15 16 17 19 19 19 21 23 23 23 24 27 27 26 26 28 28 27 26 25 24 25 23 19 17 17 17 15 15 15 16 18 20 21 22 23 23 24 25 26 26 25 25 25 25 24 24 24 25 25 25 26
5 6 7 7 8 9 10 11 13 13 14 16 18 17 17 18 18 18 19 19 19 22 25 26 27 28 29 29 27 26 26 26 26 23 20 19 19 17 15 16 16 18 20 22 23 23 24 25 26 26 27 27 27 27 27 27 27 26 26 26 27 27 27
6 7 7 8 8 9 10 11 12 13 14 15 17 18 18 17 17 18 18 17 18 20 21 22 25 26 27 28 28 27 27 28 28 26 24 21 20 19 19 20 20 21 22 23 24 24 24 24 24 24 26 26 27 28 28 28 28 28 28 28 29 30 28
7 7 8 8 9 9 10 11 12 13 14 15 15 17 19 19 18 18 17 17 19 19 18 18 21 22 24 27 28 28 29 29 29 29 26 23 22 21 22 23 22 23 23 24 24 24 23 22 22 24 25 27 28 28 29 29 29 28 28 28 29 31 29
8 8 9 9 10 11 11 11 12 13 13 14 14 16 18 19 19 17 16 17 19 19 18 20 21 21 23 24 25 27 29 30 30 29 28 25 24 24 24 24 23 24 25 25 26 25 24 24 24 25 27 27 28 28 28 28 27 27 27 27 29 30 30
9 9 10 10 11 11 11 12 12 13 13 14 14 15 17 18 18 18 19 20 20 19 20 22 22 22 22 21 22 24 27 29 30 29 27 25 24 25 25 23 23 25 25 25 25 25 25 26 27 27 27 28 29 29 29 28 26 25 26 27 28 29 30
10 10 10 11 12 12 12 13 13 13 13 14 14 15 16 17 19 22 23 21 20 20 22 22 23 22 20 20 21 23 26 28 28 27 26 24 23 23 21 21 21 23 23 23 25 26 27 28 28 28 29 30 30 31 30 29 27 25 25 27 28 29 30
10 11 11 12 12 12 13 13 13 13 14 13 14 16 18 19 22 24 24 22 21 21 22 22 23 22 21 21 23 24 26 26 24 23 22 21 20 18 16 17 18 19 21 23 25 26 27 28 29 29 30 32 32 32 32 31 29 28 28 29 30 31 32
11 12 13 13 14 15 15 15 14 14 14 14 16 19 20 21 23 25 24 22 20 19 19 21 21 22 22 23 23 24 24 23 22 20 19 17 16 15 16 17 19 20 22 24 25 26 27 28 29 31 32 33 35 35 34 33 32 33 34 35 34 34 35
12 12 13 13 14 14 15 15 15 14 15 17 20 23 22 21 22 23 22 21 19 17 18 18 19 20 21 22 22 21 21 20 19 18 17 16 17 18 18 19 20 21 22 23 24 26 28 29 31 32 33 35 36 37 36 36 37 38 39 39 39 38 39
12 13 14 14 15 16 16 16 15 14 16 21 23 24 24 22 20 20 20 19 18 17 18 19 19 20 20 20 20 19 19 18 17 16 16 16 17 17 15 15 18 20 20 23 26 28 30 31 32 33 35 36 37 37 37 38 37 37 37 37 38 37 37
14 16 16 16 17 17 17 16 15 15 19 23 23 22 22 22 20 20 20 19 18 18 20 20 20 19 18 18 17 16 15 14 14 14 14 14 15 15 13 13 17 20 22 25 27 28 29 31 32 34 34 34 33 32 31 31 31 31 31 32 31 30 29
15 16 16 15 16 16 15 15 17 18 20 23 22 20 20 19 19 20 21 20 19 19 19 19 17 15 15 13 12 12 11 11 11 12 13 13 13 14 13 14 17 21 23 24 25 26 27 28 29 29 27 25 24 23 23 24 24 25 27 27 26 26 25
14 14 14 14 15 15 15 17 19 20 21 23 24 22 20 19 18 20 21 20 18 17 15 14 13 12 11 10 9 9 9 9 9 10 11 12 12 12 13 14 16 19 20 22 23 23 23 22 21 21 20 20 20 20 21 21 21 22 24 24 24 24 24
Wind_Direction
151 167 165 150 140 122 101 88 79 79 77 76 79 75 75 89 99 108 111 98 85 76 66 85 96 88 94 109 141 147 142 132 115 100 85 82 75 74 70 52 43 33 14 275 275 244 231 268 268 262 253 221 216 219 225 235 242 250 248 241 241 242 236
174 172 165 154 134 120 108 103 93 82 80 78 82 82 77 81 90 100 111 115 113 102 85 84 83 80 81 86 96 110 113 125 137 139 134 127 117 100 83 59 42 35 34 51 44 32 252 273 288 307 312 277 251 243 225 217 228 250 260 251 247 251 250
179 164 164 162 142 132 120 114 108 85 83 83 80 82 80 79 85 92 100 111 115 104 87 82 81 83 82 83 85 85 88 96 110 123 123 127 135 139 132 110 90 75 58 58 62 55 39 356 343 336 328 319 312 306 284 256 244 245 254 256 253 254 252
175 164 176 171 152 149 133 118 115 97 88 87 88 89 88 85 86 90 93 98 102 99 92 83 75 76 79 79 80 81 84 85 87 92 94 102 111 131 156 138 117 116 110 106 126 133 127 292 301 298 324 332 330 326 310 289 275 268 263 259 257 257 257
176 173 187 176 164 165 145 132 141 152 117 92 92 94 90 91 91 92 93 92 92 97 97 93 84 75 72 69 73 75 75 77 79 81 82 88 97 104 126 128 115 131 154 165 179 205 239 239 272 301 326 331 312 293 294 294 293 293 285 278 274 269 266
180 181 192 182 178 179 160 152 162 186 197 105 91 100 96 95 95 93 93 91 91 91 90 93 92 82 69 58 65 72 70 74 75 75 79 79 82 93 112 123 120 126 146 151 120 61 5 357 133 253 250 276 288 280 293 320 330 343 350 341 330 312 292
183 186 196 194 190 188 181 172 171 191 221 251 278 113 101 90 90 89 89 89 90 89 88 88 85 87 86 60 59 68 67 69 70 70 75 76 78 81 89 98 92 80 84 103 111 97 24 339 163 268 267 264 286 305 337 338 326 325 334 349 356 354 352
189 187 193 202 198 190 197 196 181 188 217 235 252 261 142 56 40 64 73 80 85 82 82 81 76 93 104 73 57 60 59 63 67 72 72 70 73 74 82 91 77 66 77 91 104 118 99 12 30 1 353 344 331 342 332 293 277 331 342 352 348 345 353
196 190 187 201 205 188 193 213 201 189 208 230 246 261 267 289 312 346 354 356 50 40 53 62 35 63 67 26 43 47 48 57 57 62 63 62 66 65 68 79 67 61 69 68 64 64 50 57 66 44 21 3 349 349 337 298 196 126 59 54 14 347 355
199 197 187 197 214 197 191 212 220 204 206 222 241 260 269 271 288 306 309 310 315 302 316 324 310 345 350 325 2 19 22 39 45 56 60 57 61 60 57 60 57 51 43 41 50 49 41 44 61 71 54 16 351 349 344 329 311 275 229 121 302 289 67
194 199 190 194 214 214 201 206 221 220 214 220 235 255 268 270 275 284 288 291 293 289 288 285 287 297 302 302 319 334 343 1 11 33 53 54 56 57 55 55 60 56 42 37 43 40 36 37 39 44 49 25 339 333 328 321 319 309 277 263 263 260 243
193 196 194 195 210 222 217 211 218 227 225 225 231 246 260 268 272 275 276 278 282 281 281 281 281 285 286 285 293 303 311 322 331 342 2 30 39 48 57 55 62 60 40 37 40 28 28 38 34 26 21 26 359 327 324 312 310 314 311 296 277 268 260
197 198 195 197 206 217 220 217 222 231 236 236 234 241 255 263 267 271 273 272 275 276 277 276 275 279 279 277 283 287 292 299 303 308 314 324 337 351 20 25 39 56 42 37 35 22 21 22 18 17 16 19 14 356 347 324 305 306 314 312 302 294 287
200 207 206 205 210 217 222 226 229 232 239 245 243 242 250 259 263 268 269 269 269 272 276 276 273 273 270 270 275 273 276 284 280 280 292 299 308 317 332 350 342 350 15 24 23 25 23 3 4 20 12 355 352 338 319 302 294 296 302 303 300 300 302
204 213 215 214 218 227 231 235 238 238 239 245 247 246 249 256 260 260 260 261 260 260 268 273 273 273 269 266 266 260 260 271 272 258 267 281 292 296 297 288 281 301 325 342 352 5 1 345 2 21 349 321 325 320 305 294 288 291 299 306 305 304 307
220 227 230 223 219 227 232 234 240 242 241 243 246 249 251 253 258 258 254 252 252 250 253 260 265 268 268 264 262 258 253 261 269 251 244 262 277 279 283 281 263 281 304 317 328 341 343 343 349 346 329 326 328 325 320 313 304 301 305 312 314 312 312
229 233 239 236 230 237 242 240 238 239 242 244 243 244 247 249 253 255 253 249 247 245 244 248 254 258 263 260 254 255 252 255 265 255 238 249 255 252 267 279 281 289 301 308 316 327 330 327 327 326 327 330 327 321 314 306 302 300 299 302 307 307 305
227 227 233 235 235 241 248 248 246 246 249 249 245 246 252 255 251 249 250 249 247 245 242 242 246 251 259 261 252 250 252 256 265 254 239 246 242 229 246 264 272 273 278 286 296 304 308 307 310 317 321 323 321 316 307 299 296 295 292 294 300 304 304
234 232 234 237 235 237 243 247 250 253 255 253 250 250 256 261 253 244 244 245 242 242 241 241 244 247 253 258 257 252 251 254 259 250 241 244 235 224 237 254 262 262 267 278 287 293 298 301 306 314 318 317 315 311 306 304 303 300 297 296 298 301 304
242 243 245 246 242 237 238 244 251 256 256 253 251 251 253 255 247 240 242 243 239 238 238 237 240 243 246 251 254 252 249 250 253 249 242 237 229 231 242 253 259 264 272 282 288 292 295 299 304 311 313 311 310 308 306 305 302 299 297 296 296 297 299
259 254 250 246 244 239 239 247 257 260 255 249 248 247 247 246 242 240 244 244 239 236 234 232 234 236 238 242 247 248 246 246 246 241 238 236 232 236 248 256 263 270 277 284 288 289 292 297 301 305 307 306 305 304 303 303 302 299 296 294 292 292 291
278 279 271 261 258 256 257 263 266 263 258 253 248 247 248 249 248 246 244 241 240 239 237 236 237 237 236 235 238 243 245 244 242 234 230 234 234 236 247 260 270 277 281 285 286 286 289 294 298 301 303 304 304 304 303 303 301 299 295 290 288 287 284
267 275 272 267 267 272 279 282 281 278 272 263 255 254 258 259 255 251 247 245 244 243 239 240 242 239 238 237 234 236 242 243 241 235 229 233 236 239 250 264 274 279 283 287 289 289 292 295 299 303 305 305 304 302 301 300 299 297 293 289 286 283 280
258 257 254 252 254 262 271 276 280 284 283 276 269 267 266 264 262 259 257 255 252 246 240 241 244 241 240 241 237 233 237 241 240 236 231 232 234 237 250 267 273 274 281 289 293 296 298 300 303 305 306 305 304 303 302 301 299 298 294 290 287 283 280
254 251 253 252 251 255 257 259 264 269 272 274 276 275 269 266 265 265 263 261 257 251 246 247 251 248 241 240 239 233 234 238 237 231 225 226 229 234 250 264 266 270 280 289 294 298 301 304 305 305 305 304 303 302 302 302 301 300 296 292 289 286 283
263 262 260 257 255 256 257 258 259 260 261 266 273 274 270 265 263 263 265 264 259 255 253 253 254 251 242 238 238 234 231 232 232 230 228 229 232 242 256 265 269 278 286 290 294 298 301 302 303 302 301 300 299 299 300 299 299 298 296 294 292 290 289
264 264 264 264 260 258 258 259 259 260 260 261 266 271 271 267 263 263 265 264 261 260 258 253 252 253 249 243 240 238 235 233 233 234 235 238 243 254 266 272 278 284 288 290 293 295 296 297 296 294 292 292 293 295 296 296 295 293 292 290 289 289 290
269 267 265 265 264 264 264 263 262 263 262 261 261 265 268 268 265 262 258 256 257 258 254 249 250 255 255 250 245 244 242 239 236 236 239 244 253 264 273 278 282 285 289 292 294 295 297 298 296 293 291 291 292 293 294 294 294 292 290 287 286 287 288
278 276 272 270 272 273 270 267 266 267 267 265 263 261 263 265 262 258 255 253 254 254 251 249 250 252 254 252 248 245 244 240 238 238 242 249 260 268 275 280 285 290 293 294 294 296 298 298 297 295 294 295 296 297 297 297 295 292 288 285 284 284 283
279 277 275 275 276 275 274 272 270 269 268 269 269 263 260 258 254 252 253 254 253 251 249 249 249 247 246 247 244 240 238 237 238 241 247 255 264 271 279 286 290 293 294 293 293 295 297 297 297 298 299 299 300 299 299 299 297 292 286 283 281 278 275
275 273 273 272 272 273 274 274 273 271 270 270 270 265 257 250 248 250 253 254 254 252 250 250 248 245 244 244 241 237 235 236 240 246 253 261 268 276 284 288 288 289 290 289 290 293 295 296 297 298 298 298 298 299 300 299 296 290 285 282 280 278 276
269 267 267 266 266 265 265 265 267 270 269 265 261 258 253 248 248 251 254 257 258 256 252 248 246 245 246 245 242 240 240 242 245 250 256 261 265 271 277 279 279 281 284 286 288 290 291 292 294 294 294 295 296 297 298 296 293 291 290 287 285 282 280
272 270 268 266 266 265 266 265 262 262 261 257 253 252 252 251 251 253 255 257 258 255 252 249 249 251 252 249 246 246 246 246 247 251 256 263 268 272 276 279 281 282 283 284 285 285 285 287 288 289 290 291 293 294 294 293 291 291 290 288 285 284 283
269 265 262 262 262 262 263 262 259 258 259 257 253 251 252 252 252 254 254 252 251 253 255 255 256 256 255 251 248 246 244 245 251 257 264 269 273 276 277 278 280 280 278 277 277 278 281 283 285 286 288 290 291 292 293 293 292 291 290 288 288 288 288
264 263 265 267 268 267 267 263 257 252 252 252 250 246 246 249 254 257 256 254 255 258 257 253 250 249 246 242 239 239 240 247 256 262 266 269 271 274 272 266 269 273 273 274 276 279 283 285 287 288 289 291 292 293 293 293 294 295 296 296 295 294 293
271 273 275 275 275 276 277 267 253 246 245 246 244 241 243 250 256 257 257 258 258 254 247 238 230 227 226 225 229 236 242 249 256 261 266 271 273 274 271 262 262 268 273 278 283 285 286 287 288 289 292 296 299 301 302 302 303 306 308 308 305 303 303
276 277 275 272 271 272 271 262 252 247 245 244 243 244 248 254 257 258 259 255 245 231 220 213 209 208 212 214 221 232 239 244 252 260 268 271 272 274 275 273 273 279 287 292 294 295 295 297 298 300 305 310 313 314 314 312 313 315 314 310 306 306 307
Height
1514 1515 1516 1517 1518 1518 1519 1519 1519 1519 1520 1520 1521 1521 1521 1521 1522 1522 1523 1524 1524 1525 1524 1524 1524 1524 1524 1524 1524 1525 1525 1525 1526 1526 1527 1527 1527 1528 1529 1530 1530 1531 1531 1532 1532 1532 1533 1533 1534 1534 1533 1533 1533 1533 1534 1535 1536 1537 1538 1539 1540 1541 1542
1514 1515 1516 1517 1518 1518 1519 1519 1520 1520 1520 1520 1521 1521 1522 1522 1522 1523 1523 1523 1524 1524 1524 1524 1524 1524 1524 1524 1524 1525 1525 1526 1526 1526 1527 1527 1527 1528 1529 1530 1530 1531 1531 1532 1532 1532 1533 1533 1533 1533 1533 1533 1533 1533 1533 1534 1534 1535 1536 1538 1539 1540 1540
1513 1514 1515 1516 1517 1518 1519 1519 1520 1520 1520 1521 1521 1521 1522 1522 1523 1523 1523 1524 1524 1524 1525 1525 1525 1525 1525 1525 1525 1525 1525 1526 1526 1526 1527 1527 1528 1528 1529 1530 1530 1531 1532 1532 1532 1533 1533 1533 1533 1532 1532 1532 1532 1532 1533 1533 1533 1534 1535 1536 1537 1537 1538
1512 1514 1515 1516 1517 1518 1518 1519 1520 1520 1521 1521 1522 1522 1522 1522 1523 1523 1524 1524 1524 1525 1525 1525 1525 1526 1526 1526 1526 1526 1526 1526 1527 1527 1527 1527 1528 1528 1529 1530 1530 1531 1531 1531 1532 1532 1533 1532 1532 1532 1532 1531 1531 1532 1532 1532 1532 1533 1534 1534 1535 1535 1536
1512 1513 1514 1515 1517 1517 1518 1519 1520 1520 1521 1521 1522 1522 1523 1523 1523 1523 1524 1524 1525 1525 1525 1526 1526 1526 1526 1527 1527 1527 1527 1527 1527 1527 1528 1528 1528 1529 1529 1530 1530 1530 1531 1531 1531 1532 1531 1531 1531 1531 1531 1531 1531 1531 1531 1531 1531 1532 1533 1533 1533 1533 1534
1512 1513 1513 1515 1516 1517 1518 1519 1520 1521 1521 1521 1522 1522 1523 1523 1523 1524 1524 1524 1525 1525 1526 1526 1527 1527 1527 1527 1527 1527 1527 1527 1528 1528 1528 1528 1528 1529 1529 1530 1530 1530 1530 1531 1531 1531 1531 1531 1530 1530 1530 1531 1530 1530 1530 1530 1531 1531 1531 1532 1532 1532 1532
1511 1512 1513 1514 1516 1517 1518 1519 1520 1521 1521 1521 1521 1522 1523 1523 1524 1524 1524 1525 1525 1526 1526 1526 1527 1527 1528 1528 1528 1528 1528 1528 1528 1528 1528 1528 1529 1529 1529 1529 1530 1530 1530 1530 1531 1531 1530 1530 1530 1530 1530 1530 1530 1530 1530 1530 1530 1531 1531 1531 1532 1532 1532
1510 1512 1513 1514 1515 1517 1518 1519 1520 1521 1521 1521 1521 1522 1522 1523 1523 1524 1524 1525 1525 1526 1526 1526 1527 1527 1528 1528 1528 1529 1529 1529 1529 1529 1529 1529 1529 1529 1529 1529 1529 1530 1530 1530 1530 1530 1530 1530 1530 1530 1530 1530 1530 1530 1529 1529 1529 1530 1530 1530 1531 1531 1532
1510 1511 1513 1514 1515 1517 1518 1519 1520 1521 1521 1521 1521 1522 1522 1523 1523 1524 1524 1525 1525 1526 1526 1526 1527 1527 1528 1528 1528 1529 1529 1529 1529 1529 1529 1529 1530 1530 1529 1529 1529 1529 1530 1529 1530 1530 1530 1530 1530 1530 1531 1530 1530 1530 1529 1529 1529 1528 1529 1529 1530 1531 1532
1509 1511 1513 1514 1515 1517 1519 1519 1520 1521 1521 1522 1521 1521 1522 1523 1523 1523 1524 1524 1525 1525 1525 1526 1526 1526 1527 1527 1527 1528 1528 1529 1529 1529 1530 1530 1530 1530 1530 1530 1530 1530 1530 1530 1530 1530 1530 1530 1530 1530 1531 1531 1531 1531 1530 1530 1529 1529 1529 1529 1529 1529 1530
1509 1511 1513 1515 1516 1517 1518 1519 1519 1520 1521 1522 1521 1521 1522 1522 1523 1523 1523 1523 1524 1524 1524 1525 1525 1526 1526 1527 1527 1527 1528 1528 1528 1529 1529 1529 1529 1530 1530 1530 1530 1530 1530 1530 1530 1530 1530 1530 1530 1530 1530 1531 1531 1531 1531 1530 1529 1529 1529 1529 1529 1529 1529
1509 1511 1513 1514 1516 1516 1518 1519 1520 1520 1521 1522 1522 1522 1522 1522 1523 1523 1523 1523 1523 1523 1524 1524 1525 1525 1526 1526 1526 1527 1527 1527 1528 1528 1528 1529 1529 1529 1529 1530 1530 1530 1530 1530 1530 1530 1530 1530 1530 1530 1530 1530 1530 1530 1530 1530 1529 1529 1529 1528 1528 1529 1528
1508 1511 1512 1514 1515 1516 1517 1519 1520 1521 1521 1522 1522 1522 1522 1522 1523 1522 1522 1522 1522 1522 1523 1523 1524 1524 1525 1525 1525 1526 1526 1527 1527 1527 1527 1528 1528 1529 1529 1529 1529 1530 1530 1530 1530 1530 1530 1529 1529 1529 1529 1529 1529 1529 1529 1529 1528 1527 1528 1528 1527 1527 1527
1507 1510 1511 1513 1514 1515 1517 1518 1520 1521 1521 1522 1522 1522 1522 1522 1522 1522 1522 1522 1522 1522 1522 1523 1523 1523 1524 1524 1524 1525 1525 1526 1527 1527 1527 1527 1527 1528 1528 1528 1528 1529 1529 1529 1529 1529 1529 1529 1529 1529 1529 1529 1529 1529 1529 1529 1528 1526 1526 1526 1526 1525 1525
1506 1508 1510 1512 1514 1515 1516 1517 1519 1520 1521 1521 1521 1521 1521 1521 1521 1521 1521 1521 1521 1521 1521 1522 1522 1522 1523 1524 1524 1525 1524 1525 1526 1526 1526 1526 1526 1527 1527 1528 1528 1527 1528 1528 1528 1528 1528 1529 1529 1528 1529 1529 1529 1529 1528 1528 1527 1525 1524 1524 1524 1523 1522
1504 1507 1510 1511 1511 1513 1514 1515 1517 1518 1519 1520 1520 1520 1520 1520 1520 1520 1521 1521 1521 1521 1521 1521 1521 1521 1522 1523 1523 1524 1524 1524 1525 1526 1526 1525 1526 1526 1526 1527 1527 1527 1527 1527 1527 1527 1527 1527 1527 1527 1528 1528 1527 1527 1527 1526 1526 1524 1523 1521 1521 1521 1520
1501 1505 1508 1509 1509 1511 1513 1514 1514 1515 1516 1518 1518 1518 1518 1518 1518 1519 1519 1520 1521 1522 1522 1521 1521 1521 1521 1522 1523 1523 1524 1524 1524 1525 1525 1525 1526 1525 1524 1525 1526 1525 1525 1525 1525 1526 1526 1526 1526 1526 1526 1526 1526 1526 1525 1525 1524 1523 1522 1520 1519 1519 1518
1499 1501 1504 1505 1505 1507 1512 1513 1512 1512 1513 1515 1516 1516 1515 1514 1514 1516 1518 1520 1521 1521 1521 1521 1520 1520 1520 1521 1522 1523 1523 1523 1524 1524 1525 1524 1525 1525 1524 1524 1524 1524 1524 1524 1525 1525 1525 1525 1525 1525 1525 1524 1524 1524 1524 1524 1523 1522 1521 1519 1518 1517 1516
1498 1499 1501 1502 1502 1504 1508 1510 1509 1510 1511 1511 1512 1512 1511 1510 1511 1513 1516 1518 1519 1519 1519 1519 1519 1519 1519 1519 1520 1521 1522 1522 1522 1523 1524 1524 1524 1524 1523 1523 1523 1523 1523 1523 1523 1523 1523 1524 1523 1523 1523 1522 1522 1522 1521 1521 1521 1520 1519 1517 1516 1515 1514
1497 1498 1499 1500 1501 1502 1504 1506 1506 1508 1510 1510 1510 1510 1510 1509 1510 1511 1514 1516 1517 1517 1517 1517 1517 1517 1518 1518 1518 1519 1519 1520 1521 1521 1522 1522 1523 1522 1522 1522 1522 1522 1522 1522 1522 1522 1521 1521 1521 1521 1521 1520 1520 1519 1519 1518 1518 1517 1516 1515 1514 1513 1512
1496 1497 1498 1499 1500 1501 1502 1503 1503 1505 1507 1508 1508 1507 1507 1507 1507 1510 1512 1512 1514 1514 1514 1513 1514 1515 1516 1516 1516 1516 1516 1516 1517 1518 1519 1520 1521 1521 1520 1521 1521 1521 1521 1520 1520 1520 1519 1519 1519 1519 1519 1518 1518 1517 1516 1516 1515 1514 1514 1513 1512 1511 1510
1495 1496 1497 1498 1499 1500 1500 1500 1501 1502 1503 1504 1504 1503 1504 1504 1505 1507 1508 1508 1509 1510 1511 1510 1511 1513 1513 1514 1515 1514 1513 1513 1513 1515 1516 1517 1518 1519 1519 1519 1519 1519 1519 1519 1519 1518 1518 1517 1517 1517 1517 1516 1515 1514 1514 1513 1512 1511 1511 1510 1509 1509 1508
1496 1496 1496 1497 1497 1498 1498 1498 1499 1500 1501 1501 1501 1501 1501 1503 1503 1504 1504 1505 1506 1506 1508 1508 1509 1510 1511 1512 1512 1512 1511 1511 1511 1512 1513 1514 1515 1516 1517 1517 1517 1517 1516 1516 1517 1516 1516 1515 1515 1514 1514 1513 1512 1512 1511 1510 1510 1509 1508 1507 1506 1506 1505
1496 1496 1496 1496 1497 1497 1498 1498 1498 1499 1499 1499 1499 1499 1499 1499 1500 1500 1501 1502 1502 1503 1504 1505 1506 1507 1508 1509 1510 1509 1509 1509 1509 1510 1511 1512 1513 1514 1515 1515 1515 1514 1514 1514 1514 1513 1513 1512 1512 1511 1510 1510 1509 1508 1507 1507 1506 1506 1505 1504 1503 1503 1502
1495 1496 1496 1496 1496 1496 1497 1497 1498 1498 1498 1498 1497 1498 1497 1497 1497 1498 1498 1499 1499 1500 1500 1502 1502 1504 1505 1506 1506 1506 1506 1506 1507 1508 1509 1509 1511 1512 1512 1513 1513 1512 1512 1511 1511 1510 1510 1509 1509 1508 1507 1506 1505 1504 1504 1503 1502 1502 1501 1500 1499 1498 1498
1494 1495 1495 1495 1495 1495 1495 1496 1496 1496 1496 1496 1496 1495 1496 1496 1495 1495 1496 1496 1496 1496 1497 1498 1499 1499 1501 1503 1503 1503 1503 1504 1505 1505 1506 1507 1508 1509 1510 1510 1510 1510 1510 1509 1509 1508 1507 1506 1505 1504 1503 1502 1501 1501 1500 1500 1499 1498 1497 1496 1494 1493 1494
1493 1493 1494 1494 1494 1494 1494 1494 1494 1494 1494 1494 1494 1494 1494 1494 1493 1494 1494 1493 1493 1493 1495 1495 1495 1496 1498 1499 1500 1501 1501 1501 1502 1503 1504 1504 1505 1506 1507 1507 1508 1508 1508 1507 1506 1505 1504 1504 1503 1502 1500 1499 1498 1498 1497 1496 1495 1494 1493 1492 1490 1489 1489
1491 1492 1492 1492 1492 1492 1492 1492 1492 1492 1492 1492 1492 1492 1492 1491 1491 1492 1491 1490 1490 1491 1492 1492 1492 1494 1495 1496 1498 1499 1499 1499 1500 1501 1502 1502 1503 1504 1504 1505 1505 1505 1505 1504 1503 1502 1501 1501 1500 1498 1497 1496 1495 1494 1493 1492 1492 1491 1490 1489 1487 1486 1485
1490 1490 1490 1490 1490 1490 1490 1490 1490 1490 1490 1490 1490 1490 1490 1490 1490 1489 1488 1488 1488 1489 1489 1490 1490 1492 1493 1494 1496 1497 1497 1498 1499 1500 1500 1501 1501 1502 1502 1503 1503 1502 1502 1501 1499 1498 1498 1497 1496 1495 1493 1492 1491 1490 1489 1489 1488 1487 1486 1485 1484 1483 1482
1489 1489 1489 1489 1489 1488 1488 1488 1488 1488 1488 1488 1488 1488 1488 1488 1487 1486 1485 1485 1486 1487 1487 1488 1489 1490 1491 1492 1494 1495 1496 1496 1497 1498 1498 1499 1499 1500 1501 1501 1500 1500 1499 1498 1496 1495 1494 1493 1492 1491 1490 1488 1487 1485 1484 1484 1484 1483 1483 1482 1480 1480 1478
1487 1487 1487 1487 1487 1487 1487 1486 1486 1486 1486 1486 1486 1485 1485 1485 1484 1483 1483 1483 1484 1484 1486 1486 1487 1488 1490 1491 1492 1493 1494 1495 1495 1496 1496 1497 1498 1498 1499 1499 1498 1498 1496 1495 1493 1492 1491 1490 1489 1488 1486 1484 1483 1481 1481 1480 1479 1478 1478 1477 1475 1474 1473
1485 1485 1484 1484 1484 1484 1484 1484 1484 1484 1485 1485 1483 1482 1482 1482 1481 1481 1481 1482 1482 1483 1484 1485 1486 1487 1488 1489 1490 1491 1492 1493 1494 1494 1495 1495 1496 1497 1497 1497 1496 1495 1493 1492 1491 1489 1488 1487 1486 1484 1483 1481 1479 1478 1477 1476 1475 1473 1472 1471 1470 1469 1468
1482 1482 1482 1482 1482 1482 1482 1482 1482 1483 1482 1481 1480 1480 1479 1480 1480 1480 1480 1481 1481 1482 1483 1484 1485 1486 1487 1488 1488 1489 1490 1491 1492 1492 1493 1494 1494 1494 1495 1494 1493 1492 1491 1489 1488 1487 1486 1484 1483 1482 1480 1479 1476 1475 1474 1472 1471 1469 1468 1466 1465 1464 1463
1480 1480 1480 1479 1479 1479 1479 1479 1480 1480 1480 1477 1477 1477 1478 1478 1479 1479 1479 1479 1480 1480 1481 1482 1483 1484 1485 1486 1487 1488 1489 1490 1491 1491 1492 1492 1492 1492 1493 1492 1490 1489 1489 1487 1486 1485 1483 1482 1480 1479 1477 1476 1474 1472 1470 1468 1466 1465 1463 1461 1459 1458 1457
1477 1477 1477 1477 1476 1476 1476 1476 1477 1477 1476 1474 1474 1475 1476 1476 1477 1477 1478 1478 1479 1479 1480 1481 1481 1482 1483 1484 1485 1486 1488 1489 1489 1490 1490 1490 1490 1490 1490 1489 1487 1486 1485 1484 1483 1482 1481 1479 1477 1475 1474 1472 1471 1469 1467 1465 1463 1461 1459 1457 1456 1454 1454
1474 1474 1474 1474 1474 1473 1473 1473 1473 1473 1472 1471 1472 1473 1474 1474 1475 1476 1476 1477 1477 1478 1479 1479 1480 1481 1482 1483 1484 1485 1486 1487 1488 1488 1488 1488 1488 1487 1487 1487 1485 1483 1482 1481 1480 1479 1478 1476 1474 1473 1471 1470 1468 1466 1464 1462 1460 1459 1457 1455 1453 1452 1451
1472 1472 1472 1471 1471 1471 1471 1470 1469 1469 1470 1470 1470 1471 1472 1472 1473 1474 1475 1475 1476 1477 1477 1478 1479 1481 1482 1482 1483 1484 1485 1485 1486 1485 1485 1486 1485 1485 1484 1484 1482 1481 1480 1479 1478 1476 1475 1473 1471 1470 1469 1467 1466 1464 1462 1460 1459 1457 1455 1453 1452 1450 1449